Location: Unspecified
(0.0000°N, 0.0000°E)
Time: 18:49:14
(UTC+00:00)

COSMOS 2401 - Pass Details

Date: 02 March 2021
Orbit: 1467 x 1500 km, 82.5° (Epoch: 12 April)

Event Time Altitude Azimuth Distance (km) Brightness Sun altitude
Rises 20:21:03 0° 198° (SSW) 4,578 10.3 -32.0°
Reaches altitude 10° 20:24:05 10° 204° (SSW) 3,598 9.8 -32.7°
Maximum altitude 20:32:07 44° 273° (W) 1,938 8.3 -34.7°
Drops below altitude 10° 20:40:11 10° 342° (NNW) 3,603 9.5 -36.7°
Sets 20:43:15 0° 349° (N) 4,585 10.0 -37.5°
